TimeMDT,TemperatureF,Dew PointF,Humidity,Sea Level PressureIn,VisibilityMPH,Wind Direction,Wind SpeedMPH,Gust SpeedMPH,PrecipitationIn,Events,Conditions,WindDirDegrees,DateUTC
12:53 AM,39.9,26.1,58,30.13,10.0,WSW,9.2,-,N/A,,Clear,250,2012-10-08 06:53:00
1:53 AM,39.9,28.0,63,30.12,10.0,WSW,9.2,-,N/A,,Clear,240,2012-10-08 07:53:00
2:53 AM,39.9,28.0,63,30.10,10.0,SSW,9.2,-,N/A,,Clear,210,2012-10-08 08:53:00
3:53 AM,41.0,28.9,62,30.09,10.0,SSW,10.4,-,N/A,,Clear,200,2012-10-08 09:53:00
4:53 AM,39.9,28.9,65,30.08,10.0,SSW,11.5,-,N/A,,Clear,200,2012-10-08 10:53:00
5:53 AM,39.0,30.0,70,30.08,10.0,SSW,12.7,-,N/A,,Clear,200,2012-10-08 11:53:00
6:53 AM,39.0,30.0,70,30.09,10.0,SW,10.4,-,N/A,,Clear,220,2012-10-08 12:53:00
7:53 AM,42.1,32.0,67,30.09,10.0,SW,8.1,-,N/A,,Clear,230,2012-10-08 13:53:00
8:53 AM,46.0,34.0,63,30.09,10.0,SW,9.2,-,N/A,,Clear,230,2012-10-08 14:53:00
9:53 AM,48.9,35.1,59,30.07,10.0,West,4.6,-,N/A,,Clear,280,2012-10-08 15:53:00
10:53 AM,54.0,36.0,51,30.03,10.0,Calm,Calm,-,N/A,,Clear,0,2012-10-08 16:53:00
11:53 AM,62.1,36.0,38,29.98,10.0,Variable,5.8,-,N/A,,Clear,0,2012-10-08 17:53:00
12:53 PM,69.1,34.0,27,29.91,10.0,Variable,6.9,-,N/A,,Clear,0,2012-10-08 18:53:00
1:53 PM,75.0,36.0,24,29.86,10.0,South,10.4,17.3,N/A,,Clear,170,2012-10-08 19:53:00
2:53 PM,78.1,34.0,20,29.81,10.0,South,8.1,-,N/A,,Clear,170,2012-10-08 20:53:00
3:53 PM,82.0,26.1,13,29.77,10.0,West,12.7,25.3,N/A,,Clear,260,2012-10-08 21:53:00
4:53 PM,81.0,28.0,14,29.76,10.0,SW,16.1,25.3,N/A,,Clear,230,2012-10-08 22:53:00
5:53 PM,79.0,32.0,18,29.77,10.0,SSW,19.6,25.3,N/A,,Clear,210,2012-10-08 23:53:00
6:53 PM,73.0,35.1,25,29.80,10.0,SSW,13.8,-,N/A,,Clear,210,2012-10-09 00:53:00
8:53 PM,66.0,37.0,34,29.82,10.0,SW,16.1,-,N/A,,Clear,220,2012-10-09 02:53:00
9:53 PM,64.0,39.9,41,29.83,10.0,SW,13.8,-,N/A,,Clear,230,2012-10-09 03:53:00
10:53 PM,63.0,42.1,46,29.83,10.0,SW,16.1,-,N/A,,Clear,230,2012-10-09 04:53:00
11:53 PM,63.0,42.1,46,29.81,10.0,WSW,13.8,-,N/A,,Clear,250,2012-10-09 05:53:00